Location: Antioch Baptist Church
(32.6696°N, 85.7327°W)
Time: 00:48:01
(UTC+00:00)

NOSS 0 Rocket - Pass Details

Date: 14 July 2020
Orbit: 934 x 955 km, 70.0° (Epoch: 12 August)

Event Time Altitude Azimuth Distance (km) Brightness Sun altitude
Rises 01:48:10 0° 194° (SSW) 3,573 6.7 -11.0°
Reaches altitude 10° 01:50:41 10° 192° (SSW) 2,633 6.0 -11.4°
Maximum altitude 01:56:45 72° 109° (ESE) 981 3.9 -12.4°
Drops below altitude 10° 02:02:53 10° 26° (NNE) 2,656 6.4 -13.5°
Sets 02:05:25 0° 25° (NNE) 3,606 7.1 -13.9°
